Location: Finney State Fishing Lake and Wildlife Area
(38.1834°N, 100.3310°W)
Time: 10:30:39
(UTC+00:00)

Tiangong - Pass Details

Date: 06 December 2022
Orbit: 383 x 386 km, 41.5° (Epoch: 30 January)

Event Time Altitude Azimuth Distance (km) Brightness Sun altitude
Rises 23:47:11 0° 276° (W) 2,252 2.9 -5.4°
Reaches altitude 10° 23:49:18 10° 284° (WNW) 1,401 1.6 -5.8°
Maximum altitude 23:52:20 43° 358° (N) 549 -1.5 -6.4°
Drops below altitude 10° 23:55:24 10° 72° (ENE) 1,405 0.0 -6.9°
Enters shadow 23:55:35 - 73° (ENE) 1,479 0.1 -6.9°
